User: anonymous   Login
Location: Iola
(37.9240°N, 95.4000°W)
Time: 16:22:17
(UTC-05:00)
Language:

Meteor 2-10 Rocket - Orbit

View from above orbital plane
View from above orbital plane
View from above satellite
View from above satellite

Ground track
Ground track

The orbit data is extracted from the following two-line orbital elements,

1 14453U 83109B   15215.53441233  .00000073  00000-0  24776-4 0  9997
2 14453 081.1654 074.0289 0104036 241.1642 117.9063 14.24609309650183
Epoch (UTC): 03 August 2015 12:49:33
Eccentricity: 0.0104036
inclination: 81.1654°
perigee height: 735 km
apogee height: 884 km
right ascension of ascending node: 74.0289°
argument of perigee: 241.1642°
revolutions per day: 14.24609309
mean anomaly at epoch: 117.9063°
orbit number at epoch: 65018

The dashed part of the orbit path shows where the satellite is in the earth's shadow,  

DLR